CDC8987 ZSHC-ZSAM

Flight info

Callsign CDC8987
Flight time 1h 26m
Altitude 27600
Route UGAGO5E UGAGO A470 ENVEN ENVEN8X
Aircraft A21N/M-SDE3FGHIRWY/LB1

Departure

Time 2026-05-08 15:39
Airport Hangzhou Xiaoshan International Airport (ZSHC)

Arrival

Time 2026-05-08 17:06
Airport Xiamen Gaoqi International Airport (ZSAM)
Time Latitude Longitude Altitude Speed Heading
2026-05-08 15:15 30.23159 120.40057 29 ft 0 kts 333°
2026-05-08 15:29 30.23147 120.40063 29 ft 2 kts 333°
2026-05-08 15:30 30.23134 120.40070 29 ft 2 kts 333°
2026-05-08 15:30 30.23120 120.40079 29 ft 2 kts 333°
2026-05-08 15:30 30.23105 120.40085 29 ft 2 kts 355°
2026-05-08 15:30 30.23091 120.40084 29 ft 2 kts 17°
2026-05-08 15:31 30.23078 120.40076 29 ft 2 kts 40°
2026-05-08 15:31 30.23070 120.40065 29 ft 0 kts 60°
2026-05-08 15:31 30.23066 120.40058 29 ft 1 kts 63°
2026-05-08 15:31 30.23066 120.40057 29 ft 0 kts 63°
2026-05-08 15:34 30.23068 120.40061 29 ft 3 kts 63°
2026-05-08 15:34 30.23094 120.40120 29 ft 12 kts 62°
2026-05-08 15:35 30.23135 120.40212 29 ft 13 kts 63°
2026-05-08 15:35 30.23165 120.40280 29 ft 14 kts 63°
2026-05-08 15:35 30.23211 120.40387 29 ft 14 kts 64°
2026-05-08 15:35 30.23259 120.40492 29 ft 15 kts 62°
2026-05-08 15:36 30.23307 120.40601 29 ft 15 kts 63°
2026-05-08 15:36 30.23354 120.40708 29 ft 15 kts 63°
2026-05-08 15:36 30.23402 120.40817 29 ft 15 kts 63°
2026-05-08 15:36 30.23451 120.40926 29 ft 15 kts 63°
2026-05-08 15:37 30.23521 120.40976 29 ft 13 kts 336°
2026-05-08 15:37 30.23609 120.40958 29 ft 12 kts
2026-05-08 15:37 30.23693 120.40918 29 ft 13 kts 333°
2026-05-08 15:37 30.23778 120.40869 29 ft 13 kts 333°
2026-05-08 15:38 30.23830 120.40847 29 ft 3 kts 42°
2026-05-08 15:38 30.23833 120.40855 29 ft 0 kts 71°
2026-05-08 15:38 30.23852 120.40906 29 ft 26 kts 64°
2026-05-08 15:38 30.24066 120.41385 29 ft 105 kts 64°
2026-05-08 15:39 30.24508 120.42384 39 ft 167 kts 63°
2026-05-08 15:39 30.25040 120.43613 643 ft 173 kts 63°
2026-05-08 15:39 30.25586 120.44820 1463 ft 173 kts 64°
2026-05-08 15:39 30.26133 120.46041 2251 ft 175 kts 65°
2026-05-08 15:40 30.26712 120.47348 2784 ft 193 kts 65°
2026-05-08 15:40 30.27336 120.48765 2986 ft 202 kts 65°
2026-05-08 15:40 30.27977 120.50212 2986 ft 201 kts 65°
2026-05-08 15:40 30.28611 120.51643 2989 ft 202 kts 65°
2026-05-08 15:41 30.29259 120.53110 3148 ft 209 kts 65°
2026-05-08 15:41 30.29945 120.54665 3710 ft 225 kts 65°
2026-05-08 15:41 30.30636 120.56229 4824 ft 217 kts 65°
2026-05-08 15:41 30.31293 120.57716 5834 ft 211 kts 65°
2026-05-08 15:42 30.31957 120.59219 6669 ft 214 kts 64°
2026-05-08 15:42 30.32803 120.60661 7341 ft 221 kts 43°
2026-05-08 15:42 30.34117 120.61578 7745 ft 227 kts 18°
2026-05-08 15:42 30.35689 120.61774 7852 ft 231 kts 353°
2026-05-08 15:43 30.37209 120.61160 7859 ft 233 kts 327°
2026-05-08 15:43 30.38371 120.59843 7860 ft 236 kts 302°
2026-05-08 15:43 30.38933 120.58073 7882 ft 237 kts 276°
2026-05-08 15:43 30.38787 120.56186 7876 ft 238 kts 252°
2026-05-08 15:44 30.38132 120.54439 7868 ft 238 kts 241°
2026-05-08 15:44 30.37330 120.52769 7861 ft 238 kts 239°
2026-05-08 15:44 30.36524 120.51104 7858 ft 237 kts 240°
2026-05-08 15:44 30.35732 120.49410 7866 ft 237 kts 241°
2026-05-08 15:45 30.34975 120.47745 7867 ft 237 kts 242°
2026-05-08 15:45 30.34203 120.46021 7885 ft 250 kts 242°
2026-05-08 15:45 30.33356 120.44112 7877 ft 279 kts 242°
2026-05-08 15:45 30.32458 120.42088 7871 ft 286 kts 242°
2026-05-08 15:46 30.31558 120.40053 7873 ft 287 kts 242°
2026-05-08 15:46 30.30649 120.38000 7869 ft 287 kts 242°
2026-05-08 15:46 30.29736 120.35938 7868 ft 287 kts 242°
2026-05-08 15:46 30.28822 120.33878 7869 ft 287 kts 242°
2026-05-08 15:47 30.27910 120.31822 7881 ft 288 kts 242°
2026-05-08 15:47 30.26992 120.29758 7873 ft 285 kts 242°
2026-05-08 15:47 30.26088 120.27725 7880 ft 286 kts 242°
2026-05-08 15:47 30.25176 120.25672 7908 ft 290 kts 242°
2026-05-08 15:48 30.23311 120.21487 9111 ft 294 kts 243°
2026-05-08 15:48 30.22379 120.19399 9604 ft 293 kts 243°
2026-05-08 15:48 30.21442 120.17291 9819 ft 292 kts 243°
2026-05-08 15:49 30.20521 120.15219 9827 ft 291 kts 243°
2026-05-08 15:49 30.19594 120.13138 9953 ft 296 kts 243°
2026-05-08 15:49 30.18636 120.10998 10520 ft 305 kts 243°
2026-05-08 15:49 30.17634 120.08762 10973 ft 323 kts 244°
2026-05-08 15:50 30.16575 120.06398 11367 ft 341 kts 244°
2026-05-08 15:50 30.15449 120.03885 11725 ft 359 kts 244°
2026-05-08 15:50 30.14281 120.01279 12039 ft 376 kts 244°
2026-05-08 15:50 30.13044 119.98522 12335 ft 394 kts 244°
2026-05-08 15:51 30.11762 119.95667 12665 ft 408 kts 244°
2026-05-08 15:51 30.10456 119.92761 13228 ft 415 kts 244°
2026-05-08 15:51 30.09106 119.89764 13740 ft 418 kts 245°
2026-05-08 15:51 30.07766 119.86786 13974 ft 418 kts 244°
2026-05-08 15:52 30.06438 119.83838 13990 ft 417 kts 245°
2026-05-08 15:52 30.05087 119.80878 13990 ft 417 kts 243°
2026-05-08 15:52 30.03358 119.78159 13989 ft 420 kts 230°
2026-05-08 15:52 30.01125 119.75959 14079 ft 429 kts 216°
2026-05-08 15:53 29.98511 119.74264 14689 ft 432 kts 210°
2026-05-08 15:53 29.95854 119.72683 15508 ft 429 kts 210°
2026-05-08 15:53 29.93216 119.71117 16211 ft 429 kts 211°
2026-05-08 15:53 29.90572 119.69533 16857 ft 429 kts 211°
2026-05-08 15:54 29.87852 119.68002 17457 ft 432 kts 207°
2026-05-08 15:54 29.85026 119.66908 18009 ft 437 kts 199°
2026-05-08 15:54 29.81982 119.66248 18552 ft 443 kts 191°
2026-05-08 15:54 29.78910 119.65963 19058 ft 447 kts 188°
2026-05-08 15:55 29.75804 119.65753 19509 ft 450 kts 188°
2026-05-08 15:55 29.69497 119.65421 20394 ft 455 kts 188°
2026-05-08 15:55 29.66342 119.65253 20802 ft 458 kts 188°
2026-05-08 15:56 29.63125 119.65076 21218 ft 460 kts 188°
2026-05-08 15:56 29.59944 119.64945 21620 ft 463 kts 187°
2026-05-08 15:56 29.56697 119.64872 21989 ft 467 kts 187°
2026-05-08 15:56 29.53464 119.64788 22346 ft 468 kts 188°
2026-05-08 15:57 29.50181 119.64613 22706 ft 470 kts 189°
2026-05-08 15:57 29.46905 119.64403 23073 ft 472 kts 189°
2026-05-08 15:57 29.43604 119.64187 23447 ft 474 kts 189°
2026-05-08 15:57 29.40300 119.63974 23848 ft 475 kts 189°
2026-05-08 15:58 29.37028 119.63767 24398 ft 473 kts 189°
2026-05-08 15:58 29.33933 119.63577 24898 ft 471 kts 189°
2026-05-08 15:58 29.30663 119.63377 25414 ft 470 kts 190°
2026-05-08 15:58 29.27366 119.63174 25902 ft 469 kts 189°
2026-05-08 15:59 29.24112 119.62974 26344 ft 469 kts 190°
2026-05-08 15:59 29.20871 119.62775 26719 ft 470 kts 190°
2026-05-08 15:59 29.17601 119.62575 27068 ft 472 kts 190°
2026-05-08 15:59 29.14311 119.62373 27414 ft 473 kts 190°
2026-05-08 16:00 29.11024 119.62172 27740 ft 474 kts 190°
2026-05-08 16:00 29.07707 119.61967 27789 ft 476 kts 190°
2026-05-08 16:00 29.04386 119.61759 27794 ft 476 kts 190°
2026-05-08 16:00 29.01061 119.61552 27792 ft 476 kts 190°
2026-05-08 16:01 28.97700 119.61343 27789 ft 477 kts 190°
2026-05-08 16:01 28.94358 119.61135 27786 ft 477 kts 190°
2026-05-08 16:01 28.91033 119.60928 27788 ft 477 kts 190°
2026-05-08 16:01 28.87735 119.60724 27781 ft 478 kts 190°
2026-05-08 16:02 28.84381 119.60517 27784 ft 478 kts 190°
2026-05-08 16:02 28.81068 119.60312 27786 ft 479 kts 190°
2026-05-08 16:02 28.77723 119.60104 27778 ft 479 kts 190°
2026-05-08 16:02 28.74380 119.59898 27778 ft 479 kts 190°
2026-05-08 16:03 28.71034 119.59690 27776 ft 479 kts 190°
2026-05-08 16:03 28.67725 119.59486 27776 ft 479 kts 190°
2026-05-08 16:03 28.64387 119.59280 27783 ft 479 kts 190°
2026-05-08 16:03 28.61068 119.59074 27785 ft 479 kts 190°
2026-05-08 16:04 28.57722 119.58868 27786 ft 478 kts 190°
2026-05-08 16:04 28.54377 119.58662 27777 ft 478 kts 190°
2026-05-08 16:04 28.51084 119.58459 27779 ft 478 kts 190°
2026-05-08 16:04 28.47723 119.58253 27783 ft 479 kts 190°
2026-05-08 16:05 28.44413 119.58049 27778 ft 479 kts 190°
2026-05-08 16:05 28.41089 119.57848 27777 ft 480 kts 190°
2026-05-08 16:05 28.37736 119.57648 27770 ft 480 kts 190°
2026-05-08 16:05 28.34406 119.57449 27776 ft 480 kts 190°
2026-05-08 16:06 28.31043 119.57248 27776 ft 481 kts 190°
2026-05-08 16:06 28.27730 119.57050 27782 ft 480 kts 190°
2026-05-08 16:06 28.24384 119.56852 27775 ft 480 kts 190°
2026-05-08 16:06 28.21052 119.56653 27774 ft 481 kts 190°
2026-05-08 16:07 28.17688 119.56453 27776 ft 481 kts 190°
2026-05-08 16:07 28.14344 119.56254 27773 ft 481 kts 190°
2026-05-08 16:07 28.11015 119.56059 27774 ft 482 kts 190°
2026-05-08 16:07 28.07597 119.55979 27784 ft 484 kts 188°
2026-05-08 16:08 28.04238 119.55956 27774 ft 484 kts 188°
2026-05-08 16:08 28.00863 119.55934 27771 ft 485 kts 188°
2026-05-08 16:08 27.97493 119.55915 27779 ft 485 kts 188°
2026-05-08 16:08 27.94122 119.55894 27773 ft 486 kts 188°
2026-05-08 16:09 27.90725 119.55874 27762 ft 486 kts 188°
2026-05-08 16:09 27.87360 119.55854 27771 ft 487 kts 188°
2026-05-08 16:09 27.83971 119.55833 27773 ft 487 kts 188°
2026-05-08 16:09 27.80571 119.55814 27775 ft 487 kts 188°
2026-05-08 16:10 27.77175 119.55795 27780 ft 487 kts 188°
2026-05-08 16:10 27.73769 119.55776 27770 ft 487 kts 188°
2026-05-08 16:10 27.70365 119.55757 27762 ft 487 kts 188°
2026-05-08 16:10 27.66988 119.55737 27766 ft 488 kts 188°
2026-05-08 16:11 27.63586 119.55718 27772 ft 488 kts 188°
2026-05-08 16:11 27.60219 119.55698 27774 ft 488 kts 188°
2026-05-08 16:11 27.56782 119.55679 27766 ft 489 kts 188°
2026-05-08 16:11 27.53382 119.55660 27762 ft 489 kts 188°
2026-05-08 16:12 27.49974 119.55641 27770 ft 490 kts 188°
2026-05-08 16:12 27.46548 119.55621 27774 ft 490 kts 188°
2026-05-08 16:12 27.43177 119.55602 27766 ft 490 kts 188°
2026-05-08 16:12 27.39729 119.55592 27767 ft 490 kts 188°
2026-05-08 16:13 27.36317 119.55586 27769 ft 491 kts 188°
2026-05-08 16:13 27.32883 119.55581 27772 ft 491 kts 188°
2026-05-08 16:13 27.29509 119.55582 27764 ft 492 kts 188°
2026-05-08 16:13 27.26060 119.55579 27758 ft 492 kts 188°
2026-05-08 16:14 27.22629 119.55563 27765 ft 492 kts 188°
2026-05-08 16:14 27.19231 119.55538 27773 ft 492 kts 188°
2026-05-08 16:14 27.15766 119.55513 27753 ft 492 kts 188°
2026-05-08 16:14 27.12361 119.55488 27757 ft 493 kts 188°
2026-05-08 16:15 27.08931 119.55465 27750 ft 494 kts 188°
2026-05-08 16:15 27.05480 119.55442 27754 ft 494 kts 188°
2026-05-08 16:15 27.02025 119.55420 27749 ft 494 kts 188°
2026-05-08 16:15 26.98615 119.55398 27754 ft 495 kts 188°
2026-05-08 16:16 26.95133 119.55375 27756 ft 495 kts 188°
2026-05-08 16:16 26.91709 119.55352 27758 ft 495 kts 188°
2026-05-08 16:16 26.88224 119.55330 27758 ft 496 kts 188°
2026-05-08 16:16 26.84767 119.55307 27757 ft 497 kts 188°
2026-05-08 16:17 26.81317 119.55286 27758 ft 496 kts 188°
2026-05-08 16:17 26.77872 119.55266 27753 ft 495 kts 188°
2026-05-08 16:17 26.74410 119.55244 27755 ft 496 kts 188°
2026-05-08 16:17 26.70973 119.55222 27756 ft 496 kts 188°
2026-05-08 16:18 26.67524 119.55200 27755 ft 496 kts 188°
2026-05-08 16:18 26.64059 119.55179 27755 ft 496 kts 188°
2026-05-08 16:18 26.60595 119.55157 27756 ft 497 kts 188°
2026-05-08 16:18 26.57127 119.55136 27755 ft 496 kts 188°
2026-05-08 16:19 26.53696 119.55115 27754 ft 496 kts 188°
2026-05-08 16:19 26.50241 119.55093 27755 ft 497 kts 188°
2026-05-08 16:19 26.46787 119.55071 27754 ft 497 kts 188°
2026-05-08 16:19 26.43312 119.55050 27756 ft 498 kts 188°
2026-05-08 16:20 26.39854 119.55029 27757 ft 497 kts 188°
2026-05-08 16:20 26.36398 119.55006 27757 ft 497 kts 188°
2026-05-08 16:20 26.32895 119.54983 27755 ft 497 kts 188°
2026-05-08 16:20 26.29467 119.54959 27755 ft 497 kts 188°
2026-05-08 16:21 26.25990 119.54896 27753 ft 495 kts 190°
2026-05-08 16:21 26.22580 119.54546 27753 ft 489 kts 195°
2026-05-08 16:21 26.19240 119.53861 27752 ft 484 kts 200°
2026-05-08 16:21 26.16043 119.52891 27758 ft 481 kts 204°
2026-05-08 16:22 26.12805 119.51796 27760 ft 480 kts 205°
2026-05-08 16:22 26.09622 119.50697 27763 ft 479 kts 205°
2026-05-08 16:22 26.06463 119.49608 27761 ft 478 kts 205°
2026-05-08 16:22 26.03286 119.48515 27758 ft 478 kts 204°
2026-05-08 16:23 26.00106 119.47427 27756 ft 478 kts 204°
2026-05-08 16:23 25.96902 119.46335 27752 ft 478 kts 204°
2026-05-08 16:23 25.93743 119.45261 27750 ft 477 kts 204°
2026-05-08 16:23 25.90546 119.44174 27749 ft 478 kts 204°
2026-05-08 16:24 25.87353 119.43091 27743 ft 478 kts 204°
2026-05-08 16:24 25.84210 119.42025 27742 ft 478 kts 204°
2026-05-08 16:24 25.80990 119.40934 27738 ft 478 kts 204°
2026-05-08 16:24 25.77852 119.39807 27729 ft 474 kts 208°
2026-05-08 16:25 25.74923 119.38237 27729 ft 466 kts 217°
2026-05-08 16:25 25.72276 119.36192 27724 ft 458 kts 225°
2026-05-08 16:25 25.69973 119.33777 27730 ft 454 kts 231°
2026-05-08 16:25 25.67797 119.31242 27726 ft 453 kts 232°
2026-05-08 16:26 25.65655 119.28715 27728 ft 452 kts 232°
2026-05-08 16:26 25.63518 119.26192 27723 ft 452 kts 232°
2026-05-08 16:26 25.61348 119.23634 27720 ft 453 kts 232°
2026-05-08 16:26 25.59189 119.21094 27719 ft 453 kts 232°
2026-05-08 16:27 25.57025 119.18555 27722 ft 453 kts 232°
2026-05-08 16:27 25.54856 119.16012 27725 ft 453 kts 232°
2026-05-08 16:27 25.52710 119.13500 27718 ft 454 kts 232°
2026-05-08 16:27 25.50521 119.10938 27716 ft 454 kts 232°
2026-05-08 16:28 25.48358 119.08408 27716 ft 454 kts 232°
2026-05-08 16:28 25.46196 119.05882 27714 ft 455 kts 232°
2026-05-08 16:28 25.44008 119.03327 27711 ft 455 kts 232°
2026-05-08 16:28 25.41845 119.00802 27710 ft 455 kts 232°
2026-05-08 16:29 25.39674 118.98268 27594 ft 456 kts 232°
2026-05-08 16:29 25.37498 118.95731 27349 ft 454 kts 232°
2026-05-08 16:29 25.35325 118.93201 27081 ft 452 kts 232°
2026-05-08 16:29 25.33159 118.90661 26496 ft 450 kts 232°
2026-05-08 16:30 25.31077 118.88152 25722 ft 449 kts 232°
2026-05-08 16:30 25.28986 118.85608 24831 ft 451 kts 232°
2026-05-08 16:30 25.26877 118.83041 23841 ft 454 kts 232°
2026-05-08 16:30 25.24734 118.80438 22929 ft 456 kts 232°
2026-05-08 16:31 25.22633 118.77896 22298 ft 450 kts 232°
2026-05-08 16:31 25.20528 118.75353 21652 ft 446 kts 231°
2026-05-08 16:31 25.18443 118.72836 21013 ft 441 kts 231°
2026-05-08 16:31 25.16406 118.70377 20387 ft 437 kts 231°
2026-05-08 16:32 25.14351 118.67896 19733 ft 433 kts 231°
2026-05-08 16:32 25.12342 118.65475 19102 ft 429 kts 231°
2026-05-08 16:32 25.10333 118.63054 18466 ft 424 kts 231°
2026-05-08 16:32 25.08367 118.60709 17856 ft 419 kts 230°
2026-05-08 16:33 25.06362 118.58394 17228 ft 415 kts 229°
2026-05-08 16:33 25.04375 118.56123 16703 ft 408 kts 229°
2026-05-08 16:33 25.02433 118.53907 16377 ft 399 kts 229°
2026-05-08 16:33 25.00518 118.51716 16008 ft 393 kts 229°
2026-05-08 16:34 24.98632 118.49553 15679 ft 390 kts 229°
2026-05-08 16:34 24.96751 118.47397 15340 ft 388 kts 229°
2026-05-08 16:34 24.94906 118.45280 15045 ft 386 kts 229°
2026-05-08 16:34 24.93046 118.43146 14787 ft 385 kts 229°
2026-05-08 16:35 24.91200 118.41030 14554 ft 383 kts 229°
2026-05-08 16:35 24.89337 118.38895 14326 ft 383 kts 229°
2026-05-08 16:35 24.87496 118.36785 14117 ft 383 kts 229°
2026-05-08 16:35 24.85645 118.34666 13936 ft 379 kts 229°
2026-05-08 16:36 24.83867 118.32639 13743 ft 354 kts 229°
2026-05-08 16:36 24.82236 118.30778 13485 ft 330 kts 229°
2026-05-08 16:36 24.80661 118.28980 13082 ft 320 kts 229°
2026-05-08 16:36 24.79135 118.27235 12766 ft 314 kts 229°
2026-05-08 16:37 24.77632 118.25517 12430 ft 309 kts 229°
2026-05-08 16:37 24.76159 118.23834 12108 ft 305 kts 229°
2026-05-08 16:37 24.74696 118.22163 11793 ft 300 kts 229°
2026-05-08 16:37 24.73273 118.20538 11488 ft 295 kts 229°
2026-05-08 16:38 24.71856 118.18922 11190 ft 291 kts 229°
2026-05-08 16:38 24.70456 118.17324 10894 ft 286 kts 229°
2026-05-08 16:38 24.69091 118.15768 10601 ft 282 kts 229°
2026-05-08 16:38 24.67738 118.14226 10270 ft 275 kts 229°
2026-05-08 16:39 24.66429 118.12735 9797 ft 269 kts 229°
2026-05-08 16:39 24.65151 118.11278 9294 ft 264 kts 229°
2026-05-08 16:39 24.63888 118.09840 8878 ft 257 kts 228°
2026-05-08 16:39 24.62661 118.08440 8567 ft 253 kts 228°
2026-05-08 16:40 24.61449 118.07059 8274 ft 249 kts 228°
2026-05-08 16:40 24.60256 118.05702 7955 ft 247 kts 227°
2026-05-08 16:40 24.59070 118.04354 7626 ft 246 kts 227°
2026-05-08 16:40 24.57879 118.03001 7283 ft 245 kts 227°
2026-05-08 16:41 24.56704 118.01666 6951 ft 244 kts 227°
2026-05-08 16:41 24.55543 118.00297 6587 ft 242 kts 229°
2026-05-08 16:41 24.54423 117.98937 6158 ft 241 kts 229°
2026-05-08 16:42 24.52204 117.96245 5625 ft 233 kts 229°
2026-05-08 16:42 24.51133 117.94949 5370 ft 229 kts 228°
2026-05-08 16:42 24.50064 117.93658 5087 ft 225 kts 228°
2026-05-08 16:42 24.49028 117.92408 4789 ft 220 kts 228°
2026-05-08 16:43 24.48015 117.91187 4513 ft 210 kts 228°
2026-05-08 16:43 24.46942 117.90141 4150 ft 206 kts 206°
2026-05-08 16:43 24.45582 117.89864 3910 ft 196 kts 172°
2026-05-08 16:43 24.44342 117.90381 3648 ft 191 kts 142°
2026-05-08 16:44 24.43296 117.91274 3427 ft 189 kts 137°
2026-05-08 16:44 24.42279 117.92184 3191 ft 188 kts 136°
2026-05-08 16:44 24.41574 117.93312 2937 ft 177 kts 99°
2026-05-08 16:44 24.41716 117.94611 2948 ft 174 kts 67°
2026-05-08 16:45 24.42304 117.95768 2969 ft 173 kts 55°
2026-05-08 16:45 24.43023 117.96827 2985 ft 173 kts 52°
2026-05-08 16:45 24.43779 117.97871 2996 ft 173 kts 52°
2026-05-08 16:45 24.44527 117.98902 2864 ft 174 kts 52°
2026-05-08 16:46 24.45275 117.99944 2642 ft 171 kts 52°
2026-05-08 16:46 24.45994 118.00951 2425 ft 168 kts 52°
2026-05-08 16:46 24.46714 118.01962 2205 ft 164 kts 52°
2026-05-08 16:46 24.47389 118.02911 1980 ft 154 kts 51°
2026-05-08 16:47 24.48042 118.03829 1788 ft 150 kts 51°
2026-05-08 16:47 24.48681 118.04726 1601 ft 146 kts 51°
2026-05-08 16:47 24.49287 118.05576 1437 ft 140 kts 51°
2026-05-08 16:47 24.49884 118.06412 1250 ft 138 kts 52°
2026-05-08 16:48 24.50477 118.07243 1058 ft 137 kts 52°
2026-05-08 16:48 24.51057 118.08055 871 ft 136 kts 52°
2026-05-08 16:48 24.51645 118.08878 690 ft 136 kts 53°
2026-05-08 16:48 24.52218 118.09708 510 ft 135 kts 53°
2026-05-08 16:49 24.52798 118.10510 339 ft 134 kts 52°
2026-05-08 16:49 24.53374 118.11309 178 ft 132 kts 53°
2026-05-08 16:49 24.53927 118.12092 77 ft 123 kts 53°
2026-05-08 16:49 24.54465 118.12849 377 ft 131 kts 53°
2026-05-08 16:50 24.55024 118.13635 1086 ft 131 kts 52°
2026-05-08 16:50 24.55548 118.14370 1899 ft 125 kts 52°
2026-05-08 16:50 24.56102 118.15144 2393 ft 134 kts 51°
2026-05-08 16:50 24.56711 118.15990 2788 ft 150 kts 51°
2026-05-08 16:51 24.57404 118.16954 3141 ft 173 kts 52°
2026-05-08 16:51 24.58184 118.18045 3630 ft 193 kts 52°
2026-05-08 16:51 24.59064 118.19277 3832 ft 214 kts 51°
2026-05-08 16:51 24.59998 118.20585 3837 ft 221 kts 51°
2026-05-08 16:52 24.60957 118.21928 3853 ft 223 kts 52°
2026-05-08 16:52 24.61965 118.23226 3853 ft 223 kts 39°
2026-05-08 16:52 24.63350 118.23978 3859 ft 226 kts 13°
2026-05-08 16:52 24.64933 118.23972 3863 ft 229 kts 347°
2026-05-08 16:53 24.67377 118.21775 3865 ft 240 kts 295°
2026-05-08 16:53 24.67694 118.19989 3870 ft 244 kts 267°
2026-05-08 16:53 24.67227 118.18209 3872 ft 247 kts 240°
2026-05-08 16:54 24.66250 118.16634 3879 ft 246 kts 234°
2026-05-08 16:54 24.65250 118.15125 3874 ft 245 kts 234°
2026-05-08 16:54 24.64258 118.13612 3872 ft 245 kts 234°
2026-05-08 16:54 24.63264 118.12072 3871 ft 245 kts 235°
2026-05-08 16:55 24.62293 118.10548 3873 ft 245 kts 235°
2026-05-08 16:55 24.61314 118.09006 3872 ft 246 kts 235°
2026-05-08 16:55 24.60336 118.07458 3871 ft 246 kts 236°
2026-05-08 16:55 24.59362 118.05917 3873 ft 246 kts 235°
2026-05-08 16:56 24.58384 118.04369 3871 ft 246 kts 235°
2026-05-08 16:56 24.57402 118.02816 3873 ft 246 kts 235°
2026-05-08 16:56 24.56367 118.01306 3874 ft 245 kts 230°
2026-05-08 16:56 24.55246 117.99902 3767 ft 241 kts 227°
2026-05-08 16:57 24.54148 117.98576 3634 ft 232 kts 227°
2026-05-08 16:57 24.53070 117.97281 3505 ft 228 kts 227°
2026-05-08 16:57 24.51996 117.95990 3381 ft 229 kts 227°
2026-05-08 16:57 24.50921 117.94697 3263 ft 230 kts 227°
2026-05-08 16:58 24.49847 117.93402 3225 ft 218 kts 227°
2026-05-08 16:58 24.48875 117.92230 3097 ft 204 kts 227°
2026-05-08 16:58 24.47924 117.91083 2974 ft 203 kts 227°
2026-05-08 16:58 24.46820 117.90126 2829 ft 200 kts 200°
2026-05-08 16:59 24.45475 117.89924 2707 ft 193 kts 168°
2026-05-08 16:59 24.44259 117.90447 2586 ft 185 kts 141°
2026-05-08 16:59 24.43246 117.91307 2474 ft 184 kts 136°
2026-05-08 16:59 24.42259 117.92196 2352 ft 183 kts 134°
2026-05-08 17:00 24.41587 117.93314 2261 ft 172 kts 97°
2026-05-08 17:00 24.41736 117.94566 2279 ft 168 kts 67°
2026-05-08 17:00 24.42289 117.95689 2273 ft 167 kts 56°
2026-05-08 17:00 24.42962 117.96712 2267 ft 165 kts 52°
2026-05-08 17:01 24.43677 117.97719 2262 ft 166 kts 51°
2026-05-08 17:01 24.44395 117.98718 2265 ft 166 kts 52°
2026-05-08 17:01 24.45078 117.99673 2241 ft 151 kts 52°
2026-05-08 17:01 24.45700 118.00543 2236 ft 142 kts 51°
2026-05-08 17:02 24.46310 118.01400 2251 ft 141 kts 52°
2026-05-08 17:02 24.46914 118.02247 2121 ft 141 kts 52°
2026-05-08 17:02 24.47520 118.03097 1992 ft 140 kts 52°
2026-05-08 17:02 24.48114 118.03931 1804 ft 138 kts 52°
2026-05-08 17:03 24.48710 118.04768 1605 ft 137 kts 51°
2026-05-08 17:03 24.49296 118.05589 1415 ft 137 kts 51°
2026-05-08 17:03 24.49880 118.06411 1227 ft 137 kts 51°
2026-05-08 17:03 24.50472 118.07238 1050 ft 136 kts 53°
2026-05-08 17:04 24.51055 118.08051 866 ft 136 kts 53°
2026-05-08 17:04 24.51637 118.08867 694 ft 135 kts 52°
2026-05-08 17:04 24.52212 118.09686 523 ft 135 kts 54°
2026-05-08 17:04 24.52785 118.10492 339 ft 134 kts 53°
2026-05-08 17:05 24.53353 118.11286 166 ft 131 kts 52°
2026-05-08 17:05 24.53912 118.12060 72 ft 122 kts 52°
2026-05-08 17:05 24.54341 118.12666 71 ft 78 kts 52°
2026-05-08 17:05 24.54620 118.13057 71 ft 52 kts 53°
2026-05-08 17:06 24.54712 118.13313 71 ft 27 kts 83°
2026-05-08 17:06 24.54728 118.13436 71 ft 7 kts 81°
2026-05-08 17:06 24.54750 118.13522 71 ft 15 kts 64°
2026-05-08 17:06 24.54811 118.13616 70 ft 15 kts 52°
2026-05-08 17:07 24.54874 118.13705 70 ft 14 kts 52°
2026-05-08 17:07 24.54937 118.13793 70 ft 14 kts 52°
2026-05-08 17:07 24.55000 118.13881 70 ft 14 kts 51°
2026-05-08 17:07 24.55051 118.13975 70 ft 14 kts 101°
2026-05-08 17:08 24.54987 118.14043 70 ft 11 kts 142°
2026-05-08 17:08 24.54922 118.14098 70 ft 12 kts 141°
2026-05-08 17:08 24.54884 118.14132 70 ft 6 kts 142°
2026-05-08 17:08 24.54850 118.14123 70 ft 6 kts 238°
2026-05-08 17:09 24.54835 118.14100 70 ft 1 kts 231°
2026-05-08 17:09 24.54834 118.14099 70 ft 0 kts 231°